Regional Weather Roundup
Issued by NWS

Home | Current Version | Previous Version | Text Only | Print | Product List | Glossary On
Versions: 1 2 3 4 5 6 7 8 9 10 11 12 13 14 15 16 17 18 19 20 21 22 23 24 25 26 27 28 29 30 31 32 33 34 35 36 37 38 39 40 41 42 43 44 45 46 47 48 49 50
000
ASUS45 KABQ 131810
RWRNM
NEW MEXICO REGIONAL WEATHER ROUNDUP
NATIONAL WEATHER SERVICE ALBUQUERQUE NM
1100 AM MST SAT FEB 13 2016

NOTE: "FAIR" MEANS FEW OR NO CLOUDS BELOW 12,000 FEET AGL WITH NO
       SIGNIFICANT WEATHER OR OBSTRUCTIONS TO VISION.

      THIS PRODUCT IS RELEASED AS TWO VERSIONS.  ONE VERSION NEAR
      THE TOP OF THE HOUR CONTAINING PRELIMINARY DATA FROM ALBUQUERQUE
      AND OTHER STATIONS.  A FINAL VERSION WITH ADDITIONAL DATA IS
      ISSUED ABOUT 10 MINUTES AFTER THE HOUR.

NMZ501-503-504-510>518-131900-
NORTHWEST PLATEAU/NORTHCENTRAL MOUNTAINS

CITY           SKY/WX    TMP DP  RH WIND       PRES   REMARKS
FARMINGTON     FAIR      49  27  42 SE7       30.26F
6HR MIN TEMP:  26; 6HR MAX TEMP:  49;

LOS ALAMOS     FAIR      46  24  42 E3        30.30F
SANTA FE       FAIR      56  22  26 VRB5      30.27F
6HR MIN TEMP:  30; 6HR MAX TEMP:  56;

TAOS           FAIR      48  25  40 CALM      30.29F
ANGEL FIRE     FAIR      46  16  29 W14G20    30.31S

$$
NMZ402-403-502-505>509-131900-
WESTCENTRAL MOUNTAINS/SOUTHWEST MOUNTAINS

CITY           SKY/WX    TMP DP  RH WIND       PRES   REMARKS
GALLUP         FAIR      54  25  32 VRB3      30.30F
6HR MIN TEMP:  16; 6HR MAX TEMP:  54;

GRANTS         FAIR      53  17  24 CALM      30.32F
SILVER CITY      N/A     64  10  12 SE7       30.30S

$$
NMZ407-409-411-412-131900-
SOUTHERN DESERTS

CITY           SKY/WX    TMP DP  RH WIND       PRES   REMARKS
LORDSBURG      FAIR      64  19  17 SE14G20   30.23F
DEMING         FAIR      61  16  17 CALM      30.25F
6HR MIN TEMP:  32; 6HR MAX TEMP:  62;

LAS CRUCES     FAIR      62  13  15 SE8       30.27S
HOLLOMAN AFB   FAIR      61  15  17 SW2       30.24F
ALAMOGORDO     FAIR      61  14  16 CALM      30.26F
T OR C         FAIR      61  12  14 CALM      30.26F
6HR MIN TEMP:  38; 6HR MAX TEMP:  61;


$$
NMZ519>523-131900-
CENTRAL VALLEYS/CENTRAL HIGHLANDS

CITY           SKY/WX    TMP DP  RH WIND       PRES   REMARKS
ALBUQUERQUE    FAIR      53  21  28 SW3       30.28F
6HR MIN TEMP:  31; 6HR MAX TEMP:  53;

DOUBLE EAGLE   MOSUNNY   55  23  28 SE3       30.29F
MORIARTY ARPT  FAIR      55  20  24 SW3       30.29F
6HR MIN TEMP:  17; 6HR MAX TEMP:  55;

CLINES CORNERS FAIR      56  16  20 SW18      30.27F
6HR MIN TEMP:  33; 6HR MAX TEMP:  57;

BELEN          FAIR      53  20  27 CALM      30.27F
6HR MIN TEMP:  25; 6HR MAX TEMP:  53;

SOCORRO        FAIR      54  16  22 CALM      30.26F
6HR MIN TEMP:  34; 6HR MAX TEMP:  54;


$$
NMZ524>526-539-540-131900-
SOUTHCENTRAL MOUNTAINS

CITY           SKY/WX    TMP DP  RH WIND       PRES   REMARKS
RUIDOSO          N/A     55  14  19 N5        30.33F

$$
NMZ527>531-131900-
NORTHEAST HIGHLANDS/NORTHEAST PLAINS

CITY           SKY/WX    TMP DP  RH WIND       PRES   REMARKS
LAS VEGAS      FAIR      64  15  15 SW23G29   30.22F
6HR MIN TEMP:  31; 6HR MAX TEMP:  64;

RATON          FAIR      54  23  30 VRB3      30.17F
6HR MIN TEMP:  22; 6HR MAX TEMP:  54;

CLAYTON        FAIR      64  24  21 SW23G29   30.10F
6HR MIN TEMP:  35; 6HR MAX TEMP:  64;


$$
NMZ532>537-131900-
EASTCENTRAL PLAINS

CITY           SKY/WX    TMP DP  RH WIND       PRES   REMARKS
TUCUMCARI      FAIR      66  26  22 SW16      30.16F
6HR MIN TEMP:  34; 6HR MAX TEMP:  66;

CANNON AFB     FAIR      58  32  38 SW15      30.22F
6HR MIN TEMP:  32; 6HR MAX TEMP:  58;

CLOVIS AIRPORT FAIR      57  34  41 S18       30.24F

$$
NMZ028-029-538-131900-
SOUTHEAST PLAINS

CITY           SKY/WX    TMP DP  RH WIND       PRES   REMARKS
ROSWELL        FAIR      55  30  38 S10       30.24F
6HR MIN TEMP:  29; 6HR MAX TEMP:  55;

ARTESIA        FAIR      55  32  41 S7        30.25F
CARLSBAD       FAIR      56  33  42 E5        30.24F
6HR MIN TEMP:  29; 6HR MAX TEMP:  56;

HOBBS          SUNNY     59  36  41 SE12G17   30.27F


$$



USA.gov is the U.S. government's official web portal to all federal, state and local government web resources and services.